Location: Cutler
(25.6150°N, 80.3110°W)
Time: 02:21:18
(UTC-05:00)

N. Korean satellite - Pass Details

Date: 18 November 2017
Orbit: 460 x 514 km, 97.2° (Epoch: 21 November)

Event Time Altitude Azimuth Distance (km) Brightness Sun altitude
Rises 18:41:45 0° 175° (S) 2,470 10.3 -15.9°
Reaches altitude 10° 18:43:48 10° 179° (S) 1,601 9.3 -16.3°
Maximum altitude 18:47:11 59° 260° (W) 540 7.0 -17.1°
Drops below altitude 10° 18:50:37 10° 340° (NNW) 1,627 9.3 -17.8°
Sets 18:52:43 0° 345° (NNW) 2,514 10.2 -18.3°
